Location: Newark
(40.7636°N, 73.9728°W)
Time: 23:38:23
(UTC+00:00)

LightSail 2 - Visible Passes

Search period start: 17 September 2019 00:00
Search period end: 27 September 2019 00:00
Orbit: 699 x 732 km, 24.0° (Epoch: 17 September)

Date Brightness Start Highest point End Pass type
(mag) Time Alt. Az. Time Alt. Az. Time Alt. Az.
23 Sep 7.5 09:33:22 10° S 09:33:40 10° S 09:33:59 10° S visible
25 Sep 7.3 09:22:51 10° SSW 09:24:21 11° S 09:25:50 10° SSE visible
26 Sep 7.4 10:11:13 10° SSW 10:11:58 10° S 10:12:43 10° S visible
